Weather reports worldwide

Advertisment
London/Heathrow Intl, United Kingdom (3772): temperature & dewpoint: 16.07.2019 20:00:00 - 22.07.2019 20:00:00 (BST)London/Heathrow Intl, United Kingdom (3772): wind speed & gusts: 16.07.2019 20:00:00 - 22.07.2019 20:00:00 (BST)London/Heathrow Intl, United Kingdom (3772): wind direction: 16.07.2019 20:00:00 - 22.07.2019 20:00:00 (BST)London/Heathrow Intl, United Kingdom (3772): reduced air pressure: 16.07.2019 20:00:00 - 22.07.2019 20:00:00 (BST)London/Heathrow Intl, United Kingdom (3772): visibility: 16.07.2019 20:00:00 - 22.07.2019 20:00:00 (BST)London/Heathrow Intl, United Kingdom (3772): sunshine duration: 16.07.2019 20:00:00 - 22.07.2019 20:00:00 (BST)London/Heathrow Intl, United Kingdom (3772): precipitation: 16.07.2019 20:00:00 - 22.07.2019 20:00:00 (BST)
Date & Time tt [°C] td [°C] ff [km/h] ff [kn] fx [km/h] fx [kn] dd ppp [hPa] vv [km] sd [min] rr [mm]
22.07.2019 20:00:00 24,7 17,1 16 9 - - SSW 1021,1 40 60 0,0
22.07.2019 19:00:00 25,8 17,2 18 10 - - SW 1020,9 10 60 0,0
22.07.2019 18:00:00 26,5 17,4 18 10 - - SSW 1020,9 10 48 0,0
22.07.2019 17:00:00 26,5 17,0 16 9 - - SW 1021,2 10 48 0,0
22.07.2019 16:00:00 27,5 17,6 21 11 - - SSW 1021,5 50 60 0,0
22.07.2019 15:00:00 26,7 17,2 18 10 - - SSW 1021,8 55 60 0,0
22.07.2019 14:00:00 26,5 17,9 21 11 - - SW 1022,0 10 36 0,0
22.07.2019 13:00:00 24,9 17,4 18 10 - - SW 1022,4 10 24 0,0
22.07.2019 12:00:00 22,4 17,5 13 7 - - SW 1022,7 10 0 0,0
22.07.2019 11:00:00 21,4 16,8 16 9 - - WSW 1022,6 10 0 0,0
22.07.2019 10:00:00 21,8 16,8 18 10 - - SW 1022,5 10 6 0,0
22.07.2019 09:00:00 20,8 16,2 18 10 - - WSW 1022,3 10 0 0,0
22.07.2019 08:00:00 19,3 15,2 15 8 - - SSW 1021,9 30 0 0,0
22.07.2019 07:00:00 18,5 14,8 15 8 - - SSW 1021,7 30 0 0,0
22.07.2019 06:00:00 17,9 14,8 15 8 - - SW 1021,3 10 0 0,0
22.07.2019 05:00:00 17,6 14,8 13 7 - - SW 1021,3 10 0 0,0
22.07.2019 04:00:00 17,4 14,5 21 11 - - SSW 1021,3 30 0 0,0
22.07.2019 03:00:00 17,1 14,5 16 9 - - SW 1021,5 30 0 0,0
22.07.2019 02:00:00 16,8 14,3 15 8 - - SW 1021,6 10 0 0,0
22.07.2019 01:00:00 16,5 14,1 16 9 - - SW 1022,0 10 - 0,0
22.07.2019 00:00:00 16,9 14,0 21 11 - - SSW 1021,9 35 0 0,0
21.07.2019 23:00:00 17,7 13,5 16 9 - - SSW 1021,7 10 0 0,0
21.07.2019 22:00:00 19,0 12,1 16 9 - - SSW 1021,7 50 0 0,0
21.07.2019 21:00:00 19,9 11,3 18 10 - - SSW 1021,5 65 0 0,0
21.07.2019 20:00:00 20,8 11,7 21 11 - - SSW 1021,1 10 6 0,0
21.07.2019 19:00:00 21,9 12,2 21 11 - - SSW 1021,1 55 48 0,0
21.07.2019 18:00:00 22,7 12,3 22 12 - - SW 1021,0 10 6 0,0
21.07.2019 17:00:00 22,7 13,0 22 12 - - SW 1021,3 65 0 0,0
21.07.2019 16:00:00 21,9 12,8 18 10 - - SW 1021,5 10 12 0,0
21.07.2019 15:00:00 23,4 12,8 22 12 - - SSW 1021,4 10 18 0,0
21.07.2019 14:00:00 22,7 11,4 22 12 - - SW 1021,2 70 24 0,0
21.07.2019 13:00:00 22,8 11,7 22 12 - - SW 1021,4 55 12 0,0
21.07.2019 12:00:00 21,5 12,0 21 11 - - WSW 1021,0 55 6 0,0
21.07.2019 11:00:00 21,4 12,5 22 12 - - WSW 1021,0 60 42 0,0
21.07.2019 10:00:00 20,7 13,8 16 9 - - SW 1020,7 45 54 0,0
21.07.2019 09:00:00 17,7 12,9 11 6 - - SW 1020,5 40 42 0,0
21.07.2019 08:00:00 16,4 12,9 9 5 - - SSW 1020,2 35 60 0,0
21.07.2019 07:00:00 14,8 12,6 9 5 - - SW 1019,8 26 6 0,0
21.07.2019 06:00:00 13,8 12,4 9 5 - - SSW 1018,9 10 0 0,0
21.07.2019 05:00:00 13,1 11,7 11 6 - - WSW 1018,4 25 0 0,0
21.07.2019 04:00:00 13,4 11,7 13 7 - - WSW 1017,7 28 0 0,0
21.07.2019 03:00:00 13,7 11,6 13 7 - - WSW 1017,5 30 0 0,0
21.07.2019 02:00:00 14,4 11,6 16 9 - - WSW 1016,9 35 0 0,0
21.07.2019 01:00:00 15,1 11,8 13 7 - - W 1016,4 10 - 0,0
21.07.2019 00:00:00 16,8 12,1 13 7 - - W 1015,8 40 0 0,0
20.07.2019 23:00:00 17,5 12,3 18 10 - - W 1015,3 45 0 0,0
20.07.2019 22:00:00 18,1 10,8 16 9 - - W 1014,4 10 0 0,0
20.07.2019 21:00:00 19,5 10,8 21 11 - - W 1013,4 60 36 0,0
20.07.2019 20:00:00 21,2 10,7 24 13 - - W 1012,3 55 60 0,0
20.07.2019 19:00:00 22,5 11,7 28 15 46 25 W 1011,1 10 60 0,0
20.07.2019 18:00:00 23,3 12,2 26 14 - - W 1010,5 10 54 0,0
20.07.2019 17:00:00 24,1 12,6 28 15 46 25 W 1009,7 45 42 0,0
20.07.2019 16:00:00 24,7 11,9 29 16 - - W 1009,0 10 24 0,0
20.07.2019 15:00:00 24,0 11,5 34 18 46 25 W 1008,4 10 36 0,0
20.07.2019 14:00:00 22,7 11,8 28 15 - - W 1008,0 55 36 0,0
20.07.2019 13:00:00 22,1 15,5 24 13 - - W 1007,5 10 18 0,0
20.07.2019 12:00:00 21,1 15,0 26 14 - - SSW 1007,0 45 18 0,0
20.07.2019 11:00:00 21,2 15,6 24 13 - - WSW 1006,5 45 18 0,0
20.07.2019 10:00:00 19,9 17,2 22 12 - - SW 1006,4 40 0 0,0
20.07.2019 09:00:00 18,5 17,2 13 7 - - SSW 1006,3 30 0 0,0
20.07.2019 08:00:00 17,3 16,5 16 9 - - SSW 1005,7 10 0 0,0
20.07.2019 07:00:00 16,8 16,2 13 7 - - S 1005,9 27 0 0,4
20.07.2019 06:00:00 16,4 15,7 16 9 - - SSW 1005,8 10 0 0,0
20.07.2019 05:00:00 16,6 15,8 15 8 - - SSW 1006,1 10 0 0,0
20.07.2019 04:00:00 16,5 15,9 18 10 - - SSW 1006,9 10 0 0,2
20.07.2019 03:00:00 16,3 15,7 8 4 - - S 1006,3 15 0 3,6
20.07.2019 02:00:00 17,0 16,2 15 8 - - S 1007,7 6 0 2,2
20.07.2019 01:00:00 17,6 17,0 15 8 - - S 1007,8 10 - 0,8
20.07.2019 00:00:00 17,8 16,9 11 6 - - SSW 1008,0 13 0 0,2
19.07.2019 23:00:00 18,0 16,9 13 7 - - S 1008,0 10 0 0,0
19.07.2019 22:00:00 18,2 16,9 16 9 - - SSW 1008,9 10 0 0,0
19.07.2019 21:00:00 18,4 17,1 18 10 - - SSW 1009,2 9 0 0,0
19.07.2019 20:00:00 18,7 17,5 22 12 - - SSW 1009,3 10 0 0,4
19.07.2019 19:00:00 18,5 17,8 16 9 - - S 1009,4 10 0 0,2
19.07.2019 18:00:00 18,8 16,9 15 8 - - SSW 1009,7 12 0 0,0
19.07.2019 17:00:00 19,1 16,6 26 14 - - S 1010,0 25 0 0,0
19.07.2019 16:00:00 18,6 16,6 24 13 - - SSW 1010,4 23 0 0,0
19.07.2019 15:00:00 18,0 16,7 22 12 - - S 1010,7 14 0 0,0
19.07.2019 14:00:00 17,2 16,2 22 12 - - S 1011,1 10 0 1,0
19.07.2019 13:00:00 16,7 15,8 18 10 - - S 1011,3 4,5 0 3,6
19.07.2019 12:00:00 16,2 14,7 15 8 - - S 1012,0 9 0 4,8
19.07.2019 11:00:00 17,8 13,2 24 13 - - SSW 1012,1 10 0 0,0
19.07.2019 10:00:00 17,3 12,7 18 10 - - S 1012,4 10 0 0,0
19.07.2019 09:00:00 16,8 12,3 13 7 - - S 1012,7 10 0 0,0
19.07.2019 08:00:00 15,6 12,3 13 7 - - SSW 1012,7 10 0 0,0
19.07.2019 07:00:00 14,7 10,4 11 6 - - S 1012,8 35 0 0,0
19.07.2019 06:00:00 13,9 10,4 11 6 - - SSW 1012,9 10 0 0,0
19.07.2019 05:00:00 13,4 9,6 9 5 - - SW 1013,0 10 0 0,0
19.07.2019 04:00:00 13,4 9,7 9 5 - - SSW 1013,0 10 0 0,0
19.07.2019 03:00:00 14,0 9,5 8 4 - - WSW 1013,1 10 0 0,0
19.07.2019 02:00:00 14,0 9,1 8 4 - - SW 1013,1 45 0 0,0
19.07.2019 01:00:00 15,0 8,9 11 6 - - WSW 1013,3 10 - 0,0
19.07.2019 00:00:00 16,0 9,0 15 8 - - WSW 1012,9 10 0 0,0
18.07.2019 23:00:00 17,0 8,9 15 8 - - W 1012,6 10 0 0,0
18.07.2019 22:00:00 18,1 9,3 16 9 - - W 1012,2 10 0 0,0
18.07.2019 21:00:00 19,9 10,4 21 11 - - W 1011,6 45 0 0,0
18.07.2019 20:00:00 21,5 9,9 21 11 - - W 1011,1 50 30 0,0
18.07.2019 19:00:00 23,1 9,5 18 10 - - W 1010,6 60 42 0,0
18.07.2019 18:00:00 22,8 8,8 16 9 - - W 1010,4 10 24 0,0
18.07.2019 17:00:00 23,6 8,8 21 11 - - W 1010,3 10 18 0,0
18.07.2019 16:00:00 23,3 11,5 18 10 - - W 1010,2 50 24 0,0
18.07.2019 15:00:00 22,9 13,0 22 12 - - W 1010,2 10 12 0,0
18.07.2019 14:00:00 21,7 12,6 22 12 - - W 1010,3 50 0 0,0
18.07.2019 13:00:00 20,6 11,6 26 14 - - W 1009,8 10 0 0,0
18.07.2019 12:00:00 19,7 13,9 26 14 - - W 1009,8 50 0 0,0
18.07.2019 11:00:00 19,0 16,2 22 12 - - W 1009,5 10 0 0,0
18.07.2019 10:00:00 18,0 17,0 13 7 - - W 1009,3 10 0 1,4
18.07.2019 09:00:00 17,1 16,4 15 8 - - SSW 1009,4 0,7 0 0,0
18.07.2019 08:00:00 16,7 16,0 13 7 - - S 1009,3 8 0 1,0
18.07.2019 07:00:00 16,4 15,3 15 8 - - SSW 1009,6 10 0 0,0
18.07.2019 06:00:00 15,9 15,1 11 6 - - SSW 1009,7 10 0 0,6
18.07.2019 05:00:00 16,3 14,5 15 8 - - SSW 1010,0 15 0 0,0
18.07.2019 04:00:00 16,0 14,2 13 7 - - SSW 1010,2 14 0 0,0
18.07.2019 03:00:00 16,3 13,9 9 5 - - SSW 1010,7 10 0 0,0
18.07.2019 02:00:00 16,9 13,4 13 7 - - SSW 1011,1 24 0 0,0
18.07.2019 01:00:00 17,5 13,1 11 6 - - SW 1011,4 10 - 0,0
18.07.2019 00:00:00 18,3 12,7 13 7 - - SW 1011,5 10 0 0,0
17.07.2019 23:00:00 18,8 10,8 11 6 - - SW 1011,8 10 0 0,0
17.07.2019 22:00:00 19,9 7,5 18 10 - - SW 1011,9 10 0 0,0
17.07.2019 21:00:00 20,9 10,2 16 9 - - SW 1011,6 10 0 0,0
17.07.2019 20:00:00 22,0 10,7 21 11 - - SSW 1011,7 45 6 0,0
17.07.2019 19:00:00 22,6 11,4 21 11 - - SW 1011,8 10 0 0,0
17.07.2019 18:00:00 23,8 12,3 22 12 - - SW 1012,2 10 0 0,0
17.07.2019 17:00:00 25,0 10,6 16 9 - - SW 1012,3 10 0 0,0
17.07.2019 16:00:00 24,7 10,5 15 8 - - SW 1012,6 35 0 0,0
17.07.2019 15:00:00 25,3 10,9 15 8 - - SSW 1013,0 40 6 0,0
17.07.2019 14:00:00 25,8 9,9 13 7 - - S 1013,3 45 36 0,0
17.07.2019 13:00:00 24,8 9,8 13 7 - - SSW 1014,0 10 60 0,0
17.07.2019 12:00:00 24,7 10,6 13 7 - - SSW 1014,5 10 60 0,0
17.07.2019 11:00:00 23,3 10,7 11 6 - - S 1014,8 45 54 0,0
17.07.2019 10:00:00 22,2 12,8 11 6 - - S 1015,3 10 60 0,0
17.07.2019 09:00:00 19,8 13,0 8 4 - - SW 1015,6 10 54 0,0
17.07.2019 08:00:00 18,0 13,1 8 4 - - SSW 1015,5 27 48 0,0
17.07.2019 07:00:00 16,4 12,8 9 5 - - S 1015,5 10 6 0,0
17.07.2019 06:00:00 14,3 12,4 4 2 - - SW 1015,7 10 0 0,0
17.07.2019 05:00:00 14,1 11,4 8 4 - - SW 1016,1 27 0 0,0
17.07.2019 04:00:00 14,9 11,9 8 4 - - S 1016,2 10 0 0,0
17.07.2019 03:00:00 16,1 12,3 9 5 - - SW 1016,6 30 0 0,0
17.07.2019 02:00:00 16,7 12,4 11 6 - - WSW 1017,2 10 0 0,0
17.07.2019 01:00:00 17,2 12,6 9 5 - - W 1017,6 10 - 0,0
17.07.2019 00:00:00 17,9 12,7 13 7 - - SW 1017,5 30 0 0,0
16.07.2019 23:00:00 18,7 12,9 16 9 - - SW 1017,7 30 0 0,0
16.07.2019 22:00:00 20,0 13,0 18 10 - - SSW 1017,5 30 0 0,0
16.07.2019 21:00:00 21,6 12,7 22 12 - - SW 1017,1 40 6 0,0
16.07.2019 20:00:00 23,4 12,7 22 12 - - SSW 1016,9 45 60 0,0

tt = temperature
td = dewpoint
ff = wind speed
fx = gusts
dd = wind direction
ppp = reduced air pressure
vv = visibility
sd = sunshine duration
rr = precipitation

Next stations